Pratica di Mare, Italy

10:34 AM CET on February 27, 2017 (GMT +0100)
Pratica Di Mare Mil

Weather History for LIRE - April, 2013

Change the Weather History Date:

Thursday, April 25, 2013

  Actual Average Record
Temperature  
Mean Temperature 62 °F -  
Max Temperature 77 °F 69 °F 77 °F (2013)
Min Temperature 47 °F 51 °F 42 °F (1997)
Degree Days  
Heating Degree Days 3    
Growing Degree Days 12 (Base 50)    
Moisture  
Dew Point 53 °F    
Average Humidity 64    
Maximum Humidity 94    
Minimum Humidity 29    
Precipitation  
Precipitation 0.00 in 0.05 in - ()
Sea Level Pressure  
Sea Level Pressure 30.19 in    
Wind  
Wind Speed 5 mph ()    
Max Wind Speed 12 mph    
Max Gust Speed -    
Visibility 8.3 miles    
Events      
Averages and records for this station are not official NWS values.
T = Trace of Precipitation, MM = Missing Value Source: Averaged Metar Reports

Daily Weather History Graph

Daily Weather History Graph

Search for Another Location

Airport or City:

Trip Planner

Search our weather history database for the weather conditions in past years. The results will help you decide how hot, cold, wet, or windy it might be!

Date:

Astronomy

Apr. 25, 2013 Rise Set
Actual Time 6:15 AM CEST 8:01 PM CEST
Civil Twilight 5:45 AM CEST 8:31 PM CEST
Nautical Twilight 5:09 AM CEST 9:07 PM CEST
Astronomical Twilight 4:31 AM CEST 9:46 PM CEST
Moon 7:55 PM CEST (4/25) 5:47 AM CEST (4/25)
Length of Visible Light 14h 45m
Length of Day
13h 46m
Full, 100% of the Moon is Illuminated
Apr 25
Full
Apr 25
Full
May 2
Last Quarter
May 10
New
May 18
First Quarter

Hourly Weather History & Observations

Time (CEST) Temp. Dew Point Humidity Pressure Visibility Wind Dir Wind Speed Gust Speed Precip Events Conditions
12:55 AM 62.6 °F 50.0 °F 63% 30.24 in - NNE 9.2 mph - N/A   Clear
1:55 AM 60.8 °F 53.6 °F 77% 30.21 in - NNE 5.8 mph - N/A   Clear
2:00 AM 60 °F 53 °F 72% 30.24 in 7 mi NNE 5.8 mph - -   Clear
2:55 AM 59.0 °F 51.8 °F 77% 30.21 in - South 3.5 mph - N/A   Clear
4:55 AM 59.0 °F 55.4 °F 88% 30.27 in - West 3.5 mph - N/A   Clear
5:00 AM 59 °F 55 °F 82% 30.28 in 7 mi West 3.5 mph - -   Partly Cloudy
5:55 AM 59.0 °F 57.2 °F 94% 30.24 in 6.2 mi North 9.2 mph - N/A   Scattered Clouds
6:55 AM 59.0 °F 55.4 °F 88% 30.21 in 6.2 mi NNE 6.9 mph - N/A   Scattered Clouds
7:55 AM 59.0 °F 53.6 °F 82% 30.21 in 6.2 mi North 11.5 mph - N/A   Scattered Clouds
8:00 AM 60 °F 54 °F 73% 30.22 in 9 mi North 11.5 mph - -   Overcast
10:55 AM 71.6 °F 50.0 °F 46% 30.21 in - SSW 5.8 mph - N/A   Clear
11:00 AM 72 °F 50 °F 34% 30.23 in 9 mi SSW 5.8 mph - -   Partly Cloudy
1:55 PM 71.6 °F 51.8 °F 50% 30.21 in - SW 4.6 mph - N/A   Clear
2:00 PM 71 °F 52 °F 41% 30.23 in 11 mi SW 4.6 mph - -   Scattered Clouds
2:55 PM 75.2 °F 50.0 °F 41% 30.18 in - SE 4.6 mph - N/A   Clear
5:00 PM 74 °F 48 °F 29% 30.18 in 12 mi SW 3.5 mph - -   Scattered Clouds
6:55 PM 69.8 °F 50.0 °F 49% 30.15 in - NNW 3.5 mph - N/A   Clear
7:55 PM 68.0 °F 53.6 °F 60% 30.15 in - North 2.3 mph - N/A   Clear
8:00 PM 68 °F 53 °F 49% 30.15 in 9 mi North 2.3 mph - -   Partly Cloudy
8:55 PM 64.4 °F 55.4 °F 73% 30.12 in - NE 5.8 mph - N/A   Clear
9:55 PM 64.4 °F 53.6 °F 68% 30.09 in - NE 8.1 mph - N/A   Clear
10:55 PM 66.2 °F 55.4 °F 68% 30.09 in - NNE 5.8 mph - N/A   Clear
11:00 PM 66 °F 55 °F 60% 30.12 in 9 mi NNE 5.8 mph - -   Partly Cloudy